TimeEST,TemperatureF,Dew PointF,Humidity,Sea Level PressureIn,VisibilityMPH,Wind Direction,Wind SpeedMPH,Gust SpeedMPH,PrecipitationIn,Events,Conditions,WindDirDegrees,DateUTC
12:15 AM,17.4,13.1,83,30.54,10.0,Calm,Calm,-,N/A,,Clear,0,2013-01-25 05:15:00
12:35 AM,17.6,12.9,82,30.54,10.0,NNE,3.5,-,N/A,,Clear,20,2013-01-25 05:35:00
12:55 AM,17.6,12.6,81,30.52,10.0,Calm,Calm,-,N/A,,Clear,0,2013-01-25 05:55:00
1:15 AM,17.1,13.3,85,30.52,10.0,NE,3.5,-,N/A,,Clear,40,2013-01-25 06:15:00
1:55 AM,17.8,11.3,76,30.52,10.0,Calm,Calm,-,N/A,,Clear,0,2013-01-25 06:55:00
2:15 AM,17.6,11.5,77,30.54,10.0,Calm,Calm,-,N/A,,Clear,0,2013-01-25 07:15:00
2:35 AM,17.8,13.1,82,30.54,10.0,Calm,Calm,-,N/A,,Clear,0,2013-01-25 07:35:00
2:55 AM,18.3,15.4,89,30.53,10.0,Calm,Calm,-,N/A,,Clear,0,2013-01-25 07:55:00
3:15 AM,18.3,14.7,86,30.53,10.0,Calm,Calm,-,N/A,,Clear,0,2013-01-25 08:15:00
3:35 AM,18.1,14.9,87,30.53,10.0,Calm,Calm,-,N/A,,Clear,0,2013-01-25 08:35:00
3:55 AM,17.4,13.6,85,30.52,10.0,Calm,Calm,-,N/A,,Clear,0,2013-01-25 08:55:00
4:15 AM,17.1,12.7,83,30.52,10.0,Calm,Calm,-,N/A,,Clear,0,2013-01-25 09:15:00
4:35 AM,17.1,13.3,85,30.52,10.0,Calm,Calm,-,N/A,,Clear,0,2013-01-25 09:35:00
4:55 AM,17.1,13.8,87,30.51,10.0,Calm,Calm,-,N/A,,Clear,0,2013-01-25 09:55:00
5:15 AM,16.7,13.6,88,30.52,10.0,Calm,Calm,-,N/A,,Clear,0,2013-01-25 10:15:00
5:55 AM,17.2,13.8,86,30.52,10.0,Calm,Calm,-,N/A,,Clear,0,2013-01-25 10:55:00
6:15 AM,17.6,14.0,86,30.53,10.0,Calm,Calm,-,N/A,,Clear,0,2013-01-25 11:15:00
6:35 AM,18.0,14.7,87,30.53,10.0,Calm,Calm,-,N/A,,Clear,0,2013-01-25 11:35:00
7:15 AM,18.9,15.1,85,30.52,10.0,Calm,Calm,-,N/A,,Clear,0,2013-01-25 12:15:00
7:35 AM,19.6,16.0,86,30.51,10.0,Calm,Calm,-,N/A,,Clear,0,2013-01-25 12:35:00
7:55 AM,20.1,16.0,84,30.50,10.0,Calm,Calm,-,N/A,,Clear,0,2013-01-25 12:55:00
8:15 AM,21.0,15.8,80,30.51,10.0,Calm,Calm,-,N/A,,Clear,0,2013-01-25 13:15:00
8:35 AM,21.9,15.1,75,30.49,10.0,Calm,Calm,-,N/A,,Clear,0,2013-01-25 13:35:00
8:55 AM,23.0,14.5,70,30.48,10.0,Calm,Calm,-,N/A,,Clear,0,2013-01-25 13:55:00
9:15 AM,23.9,13.6,65,30.47,10.0,East,3.5,-,N/A,,Clear,80,2013-01-25 14:15:00
9:35 AM,24.6,12.4,60,30.46,10.0,Calm,Calm,-,N/A,,Clear,0,2013-01-25 14:35:00
9:55 AM,25.3,12.4,58,30.48,10.0,Calm,Calm,-,N/A,,Clear,0,2013-01-25 14:55:00
10:15 AM,26.1,11.1,53,30.47,10.0,Calm,Calm,-,N/A,,Clear,0,2013-01-25 15:15:00
10:35 AM,26.8,12.0,54,30.46,10.0,Calm,Calm,-,N/A,,Mostly Cloudy,0,2013-01-25 15:35:00
10:55 AM,26.8,11.1,52,30.45,10.0,Calm,Calm,-,N/A,,Overcast,0,2013-01-25 15:55:00
11:15 AM,27.3,10.2,49,30.43,10.0,Calm,Calm,-,N/A,,Overcast,0,2013-01-25 16:15:00
11:35 AM,27.7,9.7,47,30.41,10.0,Calm,Calm,-,N/A,,Overcast,0,2013-01-25 16:35:00
11:55 AM,28.0,10.0,47,30.40,10.0,Calm,Calm,-,N/A,,Overcast,0,2013-01-25 16:55:00
12:15 PM,28.6,9.1,44,30.38,10.0,SSW,3.5,-,N/A,,Overcast,210,2013-01-25 17:15:00
12:35 PM,28.9,9.3,44,30.35,10.0,South,5.8,-,N/A,,Overcast,190,2013-01-25 17:35:00
12:55 PM,29.1,10.0,45,30.34,10.0,SSW,6.9,-,N/A,,Overcast,200,2013-01-25 17:55:00
1:15 PM,28.0,14.9,58,30.32,1.5,SW,4.6,-,N/A,Snow,Light Snow,220,2013-01-25 18:15:00
1:35 PM,26.2,19.4,75,30.32,4.0,Calm,Calm,-,N/A,Snow,Light Snow,0,2013-01-25 18:35:00
2:15 PM,26.2,21.2,81,30.26,5.0,Calm,Calm,-,0.01,,Overcast,0,2013-01-25 19:15:00
2:35 PM,26.2,21.9,84,30.27,10.0,Calm,Calm,-,0.01,,Overcast,0,2013-01-25 19:35:00
2:55 PM,26.2,22.3,85,30.27,5.0,Calm,Calm,-,0.01,Snow,Light Snow,0,2013-01-25 19:55:00
3:15 PM,26.6,23.0,86,30.26,4.0,Calm,Calm,-,0.03,Snow,Light Snow,0,2013-01-25 20:15:00
3:35 PM,26.6,23.4,88,30.23,4.0,ESE,3.5,-,0.05,,Overcast,120,2013-01-25 20:35:00
3:55 PM,26.6,23.4,88,30.21,5.0,SE,3.5,-,0.07,Snow,Light Snow,130,2013-01-25 20:55:00
4:15 PM,26.6,23.9,90,30.21,4.0,Calm,Calm,-,0.02,Snow,Light Snow,0,2013-01-25 21:15:00
4:35 PM,26.6,23.7,89,30.18,3.0,ESE,3.5,-,0.05,Snow,Light Snow,120,2013-01-25 21:35:00
4:55 PM,27.0,24.3,90,30.18,2.5,Calm,Calm,-,0.08,Snow,Light Snow,0,2013-01-25 21:55:00
5:15 PM,27.5,25.2,91,30.18,2.0,Calm,Calm,-,0.03,Snow,Light Snow,0,2013-01-25 22:15:00
5:35 PM,27.7,25.5,92,30.18,2.0,Calm,Calm,-,0.05,Snow,Light Snow,0,2013-01-25 22:35:00
5:55 PM,28.2,26.1,92,30.17,2.0,Calm,Calm,-,0.07,Snow,Light Snow,0,2013-01-25 22:55:00
6:15 PM,28.2,26.2,92,30.17,1.2,Calm,Calm,-,0.01,,Overcast,0,2013-01-25 23:15:00
6:35 PM,28.2,26.4,93,30.17,2.0,Calm,Calm,-,0.02,,Overcast,0,2013-01-25 23:35:00
6:55 PM,28.4,26.6,93,30.18,3.0,NNW,4.6,-,0.02,,Overcast,330,2013-01-25 23:55:00
7:15 PM,28.4,26.6,93,30.18,3.0,NW,3.5,-,N/A,,Overcast,320,2013-01-26 00:15:00
7:35 PM,28.4,26.8,94,30.16,1.5,Calm,Calm,-,0.01,,Overcast,0,2013-01-26 00:35:00
7:55 PM,28.9,27.3,94,30.16,2.5,Calm,Calm,-,0.01,,Overcast,0,2013-01-26 00:55:00
8:15 PM,28.9,27.1,93,30.14,5.0,Calm,Calm,-,N/A,,Overcast,0,2013-01-26 01:15:00
8:35 PM,28.9,27.1,93,30.14,2.5,Calm,Calm,-,0.01,,Overcast,0,2013-01-26 01:35:00
8:55 PM,29.1,27.5,94,30.13,5.0,Calm,Calm,-,0.01,,Overcast,0,2013-01-26 01:55:00
9:15 PM,29.3,27.9,94,30.13,7.0,Calm,Calm,-,N/A,,Overcast,0,2013-01-26 02:15:00
9:35 PM,29.3,27.9,94,30.13,7.0,WSW,3.5,-,N/A,,Overcast,240,2013-01-26 02:35:00
9:55 PM,29.3,27.5,93,30.14,7.0,SW,5.8,-,N/A,,Overcast,230,2013-01-26 02:55:00
10:15 PM,29.3,27.5,93,30.13,5.0,WSW,4.6,-,N/A,,Overcast,240,2013-01-26 03:15:00
10:35 PM,29.3,27.5,93,30.13,7.0,SW,5.8,-,N/A,,Overcast,230,2013-01-26 03:35:00
10:55 PM,29.3,27.5,93,30.13,7.0,WSW,4.6,-,N/A,,Overcast,250,2013-01-26 03:55:00
11:15 PM,29.5,27.5,92,30.12,7.0,WSW,5.8,-,N/A,,Overcast,250,2013-01-26 04:15:00
11:35 PM,29.7,27.5,92,30.12,10.0,WSW,4.6,-,N/A,,Overcast,250,2013-01-26 04:35:00
11:55 PM,29.8,27.5,91,30.12,10.0,WSW,4.6,-,N/A,,Overcast,250,2013-01-26 04:55:00